[Date Prev][Date Next][Thread Prev][Thread Next] - [Date Index][Thread Index][Author Index]

SPECIAL KEPS



Starshine 2
1 26996U 01054B   01359.84478488  .00087342  00000-0  84407-3 0   161
2 26996  51.6379 203.9805 0020427  44.8654 315.3983 15.65438208  1452
Sapphire
1 26932U 01043D   01360.16625566  .00000739  00000-0  32480-3 0   717
2 26932  67.0540 254.8546 0004337 233.7009 126.3696 14.28907309 12448
PCSat(SO-41)
1 26931U 01043C   01360.04826228  .00001108  00000-0  47388-3 0   748
2 26931  67.0525 255.2486 0005004 252.2152 107.8404 14.28575661 12415
Starshine 3(SO-43)
1 26929U 01043A   01360.35763702  .00039410  00000-0  10498-2 0  1138
2 26929  67.0503 213.5847 0003829 306.4752  53.6050 15.37976606 13373
----
Via the sarex mailing list at AMSAT.ORG courtesy of AMSAT-NA.
To unsubscribe, send "unsubscribe sarex" to Majordomo@amsat.org



AMSAT Top AMSAT Home